"Period start","avg(HW err(1)/warn(2) (#))","avg(Visibility (m))","avg(Weather code (#))","avg(Precip intensity (mm/h))","min(HW err(1)/warn(2) (#))","max(HW err(1)/warn(2) (#))","std(HW err(1)/warn(2) (#))","med(HW err(1)/warn(2) (#))","min(Visibility (m))","max(Visibility (m))","std(Visibility (m))","med(Visibility (m))","min(Weather code (#))","max(Weather code (#))","std(Weather code (#))","med(Weather code (#))","min(Precip intensity (mm/h))","max(Precip intensity (mm/h))","std(Precip intensity (mm/h))","med(Precip intensity (mm/h))"
2016-05-21 00:00:00,2,1024,71,0.12,2,2,0,2,722,1538,272,923,71,71,0,71,0.00,0.55,0.17,0.05
2016-05-21 00:10:00,2,645,71,0.17,2,2,0,2,504,1024,159,572,71,71,0,71,0.00,0.55,0.16,0.10
2016-05-21 00:20:00,2,580,71,0.12,2,2,0,2,463,720,82,572,71,71,0,71,0.00,0.45,0.14,0.05
2016-05-21 00:30:00,2,869,53,0.01,2,2,0,2,465,1398,329,827,32,77,21,52,0.00,0.15,0.05,0.00
2016-05-21 00:40:00,2,1189,30,0.00,2,2,0,2,856,1712,294,1136,20,32,3,31,0.00,0.00,0.00,0.00
2016-05-21 00:50:00,2,1625,40,0.00,2,2,0,2,1227,2190,265,1596,20,71,25,20,0.00,0.00,0.00,0.00
2016-05-21 01:00:00,2,2008,20,0.00,2,2,0,2,653,6244,1545,1580,20,20,0,20,0.00,0.00,0.00,0.00
2016-05-21 01:10:00,2,3299,20,0.00,2,2,0,2,1398,5813,1162,3368,20,20,0,20,0.00,0.00,0.00,0.00
2016-05-21 01:20:00,2,1839,69,0.00,2,2,0,2,1009,3965,775,1662,20,77,17,74,0.00,0.00,0.00,0.00
2016-05-21 01:30:00,2,1692,20,0.00,2,2,0,2,779,5116,1202,1438,20,20,0,20,0.00,0.00,0.00,0.00
2016-05-21 01:40:00,2,762,30,0.00,2,2,0,2,674,1202,152,703,20,41,9,32,0.00,0.00,0.00,0.00
2016-05-21 01:50:00,2,767,48,0.00,2,2,0,2,684,902,70,742,34,61,13,51,0.00,0.00,0.00,0.00
2016-05-21 02:00:00,2,782,36,0.00,2,2,0,2,622,1028,111,777,34,41,3,34,0.00,0.00,0.00,0.00
2016-05-21 02:10:00,2,719,34,0.00,2,2,0,2,667,749,27,726,34,34,0,34,0.00,0.00,0.00,0.00
2016-05-21 02:20:00,2,817,34,0.00,2,2,0,2,739,900,40,822,34,34,0,34,0.00,0.00,0.00,0.00
2016-05-21 02:30:00,2,812,33,0.00,2,2,0,2,640,1003,107,802,33,34,0,33,0.00,0.00,0.00,0.00
2016-05-21 02:40:00,2,1320,30,0.00,2,2,0,2,1084,1659,179,1314,20,33,4,32,0.00,0.00,0.00,0.00
2016-05-21 02:50:00,2,1688,20,0.00,2,2,0,2,1386,2056,213,1656,20,20,0,20,0.00,0.00,0.00,0.00
2016-05-21 03:00:00,2,2097,20,0.00,2,2,0,2,1578,2859,429,2056,20,20,0,20,0.00,0.00,0.00,0.00
2016-05-21 03:10:00,2,2863,20,0.00,2,2,0,2,1665,3769,530,2820,20,20,0,20,0.00,0.00,0.00,0.00
2016-05-21 03:20:00,2,3185,20,0.00,2,2,0,2,2524,3843,437,3138,20,20,0,20,0.00,0.00,0.00,0.00
2016-05-21 03:30:00,2,5142,20,0.00,2,2,0,2,4587,5842,467,5028,20,20,0,20,0.00,0.00,0.00,0.00
2016-05-21 03:40:00,2,6588,19,0.00,2,2,0,2,5749,8156,757,6372,10,20,3,20,0.00,0.00,0.00,0.00
2016-05-21 03:50:00,2,9033,10,0.00,2,2,0,2,7413,10886,1136,8652,10,10,0,10,0.00,0.00,0.00,0.00
2016-05-21 04:00:00,2,11279,10,0.00,2,2,0,2,8122,13557,1870,11848,10,10,0,10,0.00,0.00,0.00,0.00
2016-05-21 04:10:00,2,16186,1,0.00,2,2,0,2,11791,23991,4068,14646,0,10,3,0,0.00,0.00,0.00,0.00
2016-05-21 04:20:00,2,19114,0,0.00,2,2,0,2,14390,22793,2977,19694,0,0,0,0,0.00,0.00,0.00,0.00
2016-05-21 04:30:00,2,19985,0,0.00,2,2,0,2,14361,26055,3883,19990,0,0,0,0,0.00,0.00,0.00,0.00
2016-05-21 04:40:00,2,23803,0,0.00,2,2,0,2,20784,28453,2695,23105,0,0,0,0,0.00,0.00,0.00,0.00
2016-05-21 04:50:00,2,22641,0,0.00,2,2,0,2,15530,33265,5548,21364,0,0,0,0,0.00,0.00,0.00,0.00
2016-05-21 05:00:00,2,24611,0,0.00,2,2,0,2,15799,37177,6252,23646,0,0,0,0,0.00,0.00,0.00,0.00
2016-05-21 05:10:00,2,26029,0,0.00,2,2,0,2,16857,33414,5724,26862,0,0,0,0,0.00,0.00,0.00,0.00
2016-05-21 05:20:00,2,33356,0,0.00,2,2,0,2,18266,48465,8110,32300,0,0,0,0,0.00,0.00,0.00,0.00
2016-05-21 05:30:00,2,36915,0,0.00,2,2,0,2,23417,48904,7558,35286,0,0,0,0,0.00,0.00,0.00,0.00
2016-05-21 05:40:00,0,27144,0,0.00,0,0,0,0,20045,38254,6084,24418,0,0,0,0,0.00,0.00,0.00,0.00
2016-05-21 05:50:00,0,45943,0,0.00,0,0,0,0,40877,50000,3457,45744,0,0,0,0,0.00,0.00,0.00,0.00
2016-05-21 06:00:00,0,32000,0,0.00,0,0,0,0,24986,39766,4237,32178,0,0,0,0,0.00,0.00,0.00,0.00
2016-05-21 06:10:00,0,34895,0,0.00,0,0,0,0,24533,46837,6969,36972,0,0,0,0,0.00,0.00,0.00,0.00
2016-05-21 06:20:00,0,24545,6,0.00,0,0,0,0,8010,40609,11065,26423,0,61,18,0,0.00,0.00,0.00,0.00
2016-05-21 06:30:00,0,6607,56,2.24,0,0,0,0,3615,8082,1330,6691,51,61,5,56,0.45,6.70,2.31,1.05
2016-05-21 06:40:00,0,8092,60,1.52,0,0,0,0,6584,10986,1248,7866,51,61,3,61,0.40,3.05,0.66,1.45
2016-05-21 06:50:00,1,9088,52,0.45,0,2,1,0,7372,11656,1404,8592,41,61,7,51,0.00,1.00,0.34,0.35
2016-05-21 07:00:00,2,12522,8,0.00,2,2,0,2,9840,15551,2058,12740,0,41,16,0,0.00,0.00,0.00,0.00
2016-05-21 07:10:00,2,16610,0,0.00,2,2,0,2,10668,23505,4414,15474,0,0,0,0,0.00,0.00,0.00,0.00
2016-05-21 07:20:00,2,28700,0,0.00,2,2,0,2,22218,35869,4276,28052,0,0,0,0,0.00,0.00,0.00,0.00
2016-05-21 07:30:00,2,20112,0,0.00,2,2,0,2,7956,42770,11734,17823,0,0,0,0,0.00,0.00,0.00,0.00
2016-05-21 07:40:00,2,9453,0,0.00,2,2,0,2,8329,10581,641,9468,0,0,0,0,0.00,0.00,0.00,0.00
2016-05-21 07:50:00,2,10699,0,0.00,2,2,0,2,9192,13169,1079,10300,0,0,0,0,0.00,0.00,0.00,0.00
2016-05-21 08:00:00,2,10356,0,0.00,2,2,0,2,9734,10957,382,10355,0,0,0,0,0.00,0.00,0.00,0.00
2016-05-21 08:10:00,2,9966,0,0.00,2,2,0,2,8619,12012,874,9906,0,0,0,0,0.00,0.00,0.00,0.00
2016-05-21 08:20:00,2,10537,0,0.00,2,2,0,2,9168,11422,597,10585,0,0,0,0,0.00,0.00,0.00,0.00
2016-05-21 08:30:00,2,10427,0,0.00,2,2,0,2,9544,11350,578,10455,0,0,0,0,0.00,0.00,0.00,0.00
2016-05-21 08:40:00,2,10289,0,0.00,2,2,0,2,9289,11368,584,10268,0,0,0,0,0.00,0.00,0.00,0.00
2016-05-21 08:50:00,2,10289,0,0.00,2,2,0,2,9239,11852,790,10244,0,0,0,0,0.00,0.00,0.00,0.00
2016-05-21 09:00:00,2,11500,0,0.00,2,2,0,2,10590,12869,698,11568,0,0,0,0,0.00,0.00,0.00,0.00
2016-05-21 09:10:00,2,10696,0,0.00,2,2,0,2,9351,13110,1038,10480,0,0,0,0,0.00,0.00,0.00,0.00
2016-05-21 09:20:00,2,10107,0,0.00,2,2,0,2,9045,11379,773,9818,0,0,0,0,0.00,0.00,0.00,0.00
2016-05-21 09:30:00,2,11443,0,0.00,2,2,0,2,10477,12454,649,11198,0,0,0,0,0.00,0.00,0.00,0.00
2016-05-21 09:40:00,2,10481,0,0.00,2,2,0,2,7520,12320,1703,11362,0,0,0,0,0.00,0.00,0.00,0.00
2016-05-21 09:50:00,2,6785,46,0.36,2,2,0,2,5679,7388,459,6826,41,54,6,41,0.15,0.60,0.14,0.38
2016-05-21 10:00:00,0,6762,36,0.02,0,2,1,0,6042,7494,445,6845,10,77,25,41,0.00,0.10,0.03,0.00
2016-05-21 10:10:00,2,6546,52,0.05,0,2,1,2,5302,7838,877,6325,0,77,32,77,0.00,0.15,0.05,0.05
2016-05-21 10:20:00,2,6260,66,0.43,0,2,1,2,5417,7959,738,6155,41,77,12,71,0.20,0.75,0.16,0.40
2016-05-21 10:30:00,1,8491,76,0.03,0,2,1,2,7180,9754,790,8584,71,77,2,77,0.00,0.10,0.03,0.00
2016-05-21 10:40:00,2,8960,75,0.02,2,2,0,2,8182,10832,717,8758,71,77,3,77,0.00,0.05,0.02,0.00
2016-05-21 10:50:00,2,7909,74,0.11,2,2,0,2,6772,8617,537,8016,67,77,5,77,0.05,0.25,0.06,0.10
2016-05-21 11:00:00,2,8299,71,0.12,2,2,0,2,7214,9735,843,8068,67,77,4,69,0.00,0.25,0.09,0.10
2016-05-21 11:10:00,2,8048,47,0.11,2,2,0,2,6668,9945,1081,7831,41,77,13,41,0.00,0.20,0.07,0.10
2016-05-21 11:20:00,2,6357,67,0.20,2,2,0,2,5628,6913,372,6349,67,67,0,67,0.15,0.35,0.06,0.17
2016-05-21 11:30:00,2,5915,72,0.27,2,2,0,2,5105,6915,637,5944,41,77,11,77,0.20,0.40,0.06,0.25
2016-05-21 11:40:00,2,6079,63,0.28,2,2,0,2,4662,6816,566,6316,41,77,18,77,0.10,0.35,0.07,0.30
2016-05-21 11:50:00,2,8165,39,0.15,2,2,0,2,5880,10070,1479,8312,10,54,10,41,0.00,0.35,0.13,0.17
2016-05-21 12:00:00,2,10259,10,0.00,2,2,0,2,9590,11276,541,10263,10,10,0,10,0.00,0.00,0.00,0.00
2016-05-21 12:10:00,2,9296,10,0.00,2,2,0,2,8466,10244,572,9242,10,10,0,10,0.00,0.00,0.00,0.00
2016-05-21 12:20:00,2,8626,13,0.00,2,2,0,2,7914,9177,377,8649,10,40,9,10,0.00,0.00,0.00,0.00
2016-05-21 12:30:00,2,8103,39,0.08,2,2,0,2,7675,8603,281,8108,10,54,15,41,0.00,0.20,0.07,0.08
2016-05-21 12:40:00,2,8246,10,0.00,2,2,0,2,7907,8823,277,8196,10,10,0,10,0.00,0.00,0.00,0.00
2016-05-21 12:50:00,2,8118,10,0.00,2,2,0,2,7844,8471,159,8124,10,10,0,10,0.00,0.00,0.00,0.00
2016-05-21 13:00:00,2,8015,10,0.00,2,2,0,2,7475,8487,319,7986,10,10,0,10,0.00,0.00,0.00,0.00
2016-05-21 13:10:00,2,7573,10,0.00,2,2,0,2,6337,8073,583,7804,10,10,0,10,0.00,0.00,0.00,0.00
2016-05-21 13:20:00,2,6313,42,0.06,2,2,0,2,4724,7155,750,6544,10,77,32,40,0.00,0.20,0.08,0.03
2016-05-21 13:30:00,2,5246,75,0.13,2,2,0,2,4235,5908,540,5476,54,77,7,77,0.00,0.40,0.13,0.10
2016-05-21 13:40:00,2,5522,71,0.08,2,2,0,2,4625,6337,512,5548,54,77,9,77,0.00,0.25,0.07,0.10
2016-05-21 13:50:00,2,4524,77,0.23,2,2,0,2,3693,5420,562,4574,77,77,0,77,0.15,0.45,0.10,0.20
2016-05-21 14:00:00,2,3950,77,0.36,2,2,0,2,3448,4493,349,3954,77,77,0,77,0.20,0.75,0.14,0.33
2016-05-21 14:10:00,2,4946,75,0.30,2,2,0,2,3749,5384,482,5114,71,77,3,77,0.15,0.85,0.20,0.25
2016-05-21 14:20:00,2,2802,71,1.30,2,2,0,2,2083,3452,420,2820,71,71,0,71,0.70,2.25,0.46,1.25
2016-05-21 14:30:00,2,2223,71,1.89,2,2,0,2,1764,2553,213,2222,71,71,0,71,1.30,2.80,0.44,1.80
2016-05-21 14:40:00,2,2510,71,1.81,2,2,0,2,1997,3353,382,2428,71,71,0,71,1.20,2.35,0.43,1.90
2016-05-21 14:50:00,2,4282,71,0.88,2,2,0,2,2059,5942,1191,4498,71,71,0,71,0.10,3.10,0.86,0.53
2016-05-21 15:00:00,2,3919,71,0.79,2,2,0,2,3197,5000,594,3715,71,71,0,71,0.20,1.65,0.40,0.73
2016-05-21 15:10:00,2,5327,71,0.54,2,2,0,2,4594,6255,569,5274,71,71,0,71,0.05,1.30,0.37,0.45
2016-05-21 15:20:00,2,5490,71,0.21,2,2,0,2,4618,6081,483,5428,71,71,0,71,0.05,0.45,0.12,0.20
2016-05-21 15:30:00,2,6211,71,0.06,2,2,0,2,5231,7091,481,6155,71,71,0,71,0.00,0.15,0.05,0.05
2016-05-21 15:40:00,2,6690,76,0.03,2,2,0,2,6457,7024,204,6618,71,77,2,77,0.00,0.10,0.03,0.00
2016-05-21 15:50:00,2,6677,73,0.05,2,2,0,2,6128,7773,462,6584,71,77,3,71,0.00,0.10,0.03,0.05
2016-05-21 16:00:00,2,6160,71,0.22,2,2,0,2,5785,6490,239,6202,71,71,0,71,0.05,0.40,0.10,0.20
2016-05-21 16:10:00,2,7046,71,0.13,2,2,0,2,6464,7638,314,7023,71,71,0,71,0.00,0.25,0.08,0.12
2016-05-21 16:20:00,2,7454,71,0.16,2,2,0,2,7122,7945,245,7374,71,71,0,71,0.05,0.30,0.08,0.12
2016-05-21 16:30:00,2,7504,71,0.14,2,2,0,2,6949,7781,280,7633,71,71,0,71,0.05,0.40,0.10,0.10
2016-05-21 16:40:00,2,7648,75,0.05,2,2,0,2,7157,7997,255,7668,71,77,3,77,0.00,0.10,0.03,0.05
2016-05-21 16:50:00,2,7685,36,0.01,2,2,0,2,7341,8082,228,7592,10,77,31,10,0.00,0.05,0.02,0.00
2016-05-21 17:00:00,2,7686,10,0.00,2,2,0,2,7373,7946,167,7687,10,10,0,10,0.00,0.00,0.00,0.00
2016-05-21 17:10:00,2,8121,10,0.00,2,2,0,2,7792,8577,271,7992,10,10,0,10,0.00,0.00,0.00,0.00
2016-05-21 17:20:00,2,7643,10,0.00,2,2,0,2,6539,8980,665,7513,10,10,0,10,0.00,0.00,0.00,0.00
2016-05-21 17:30:00,2,7210,10,0.00,2,2,0,2,6841,7689,257,7170,10,10,0,10,0.00,0.00,0.00,0.00
2016-05-21 17:40:00,2,7889,10,0.00,2,2,0,2,7660,8238,159,7846,10,10,0,10,0.00,0.00,0.00,0.00
2016-05-21 17:50:00,2,7833,34,0.03,2,2,0,2,7014,8503,395,7855,10,71,30,10,0.00,0.25,0.07,0.00
2016-05-21 18:00:00,2,7854,71,0.04,2,2,0,2,6039,9020,815,7798,71,71,0,71,0.00,0.15,0.05,0.00
2016-05-21 18:10:00,2,8595,76,0.01,2,2,0,2,6952,9259,584,8656,71,78,3,77,0.00,0.15,0.05,0.00
2016-05-21 18:20:00,2,8467,77,0.00,2,2,0,2,7562,9391,431,8433,71,78,2,78,0.00,0.00,0.00,0.00
2016-05-21 18:30:00,2,8251,76,0.03,2,2,0,2,7685,8702,376,8396,71,78,3,78,0.00,0.15,0.05,0.00
2016-05-21 18:40:00,2,8313,74,0.11,2,2,0,2,7093,9689,706,8340,71,77,3,74,0.00,0.50,0.17,0.00
2016-05-21 18:50:00,2,10106,17,0.00,2,2,0,2,9224,11462,620,9986,10,77,20,10,0.00,0.00,0.00,0.00
2016-05-21 19:00:00,2,9994,10,0.00,2,2,0,2,9085,11356,621,9884,10,10,0,10,0.00,0.00,0.00,0.00
2016-05-21 19:10:00,2,10539,10,0.00,2,2,0,2,9412,11384,651,10703,10,10,0,10,0.00,0.00,0.00,0.00
2016-05-21 19:20:00,2,10752,10,0.00,2,2,0,2,9645,12181,780,10486,10,10,0,10,0.00,0.00,0.00,0.00
2016-05-21 19:30:00,2,10625,10,0.00,2,2,0,2,8878,13688,1184,10389,10,10,0,10,0.00,0.00,0.00,0.00
2016-05-21 19:40:00,2,11114,10,0.00,2,2,0,2,10117,11964,567,11152,10,10,0,10,0.00,0.00,0.00,0.00
2016-05-21 19:50:00,2,11965,5,0.00,2,2,0,2,10707,13317,978,11826,0,10,5,5,0.00,0.00,0.00,0.00
2016-05-21 20:00:00,2,12265,0,0.00,2,2,0,2,10708,13592,1150,12364,0,0,0,0,0.00,0.00,0.00,0.00
2016-05-21 20:10:00,2,12084,0,0.00,2,2,0,2,10887,13525,764,12022,0,0,0,0,0.00,0.00,0.00,0.00
2016-05-21 20:20:00,2,11236,0,0.00,2,2,0,2,10364,12273,590,11143,0,0,0,0,0.00,0.00,0.00,0.00
2016-05-21 20:30:00,2,11465,0,0.00,2,2,0,2,9961,13698,1094,11196,0,0,0,0,0.00,0.00,0.00,0.00
2016-05-21 20:40:00,2,12226,0,0.00,2,2,0,2,11075,13187,738,12415,0,0,0,0,0.00,0.00,0.00,0.00
2016-05-21 20:50:00,2,12391,0,0.00,2,2,0,2,10780,15399,1305,11900,0,0,0,0,0.00,0.00,0.00,0.00
2016-05-21 21:00:00,2,12017,0,0.00,2,2,0,2,10626,13721,913,11928,0,0,0,0,0.00,0.00,0.00,0.00
2016-05-21 21:10:00,2,11888,0,0.00,2,2,0,2,10199,13269,852,11636,0,0,0,0,0.00,0.00,0.00,0.00
2016-05-21 21:20:00,2,11779,0,0.00,2,2,0,2,10368,15336,1369,11642,0,0,0,0,0.00,0.00,0.00,0.00
2016-05-21 21:30:00,2,12644,0,0.00,2,2,0,2,9948,15172,1482,12642,0,0,0,0,0.00,0.00,0.00,0.00
2016-05-21 21:40:00,2,11614,0,0.00,2,2,0,2,9995,13531,968,11654,0,0,0,0,0.00,0.00,0.00,0.00
2016-05-21 21:50:00,2,12869,0,0.00,2,2,0,2,10232,14057,1192,13004,0,0,0,0,0.00,0.00,0.00,0.00
2016-05-21 22:00:00,2,14543,0,0.00,2,2,0,2,12425,18254,1979,14051,0,0,0,0,0.00,0.00,0.00,0.00
2016-05-21 22:10:00,2,13588,0,0.00,2,2,0,2,10967,17903,2051,13140,0,0,0,0,0.00,0.00,0.00,0.00
2016-05-21 22:20:00,2,16590,0,0.00,2,2,0,2,11853,20727,2883,16800,0,0,0,0,0.00,0.00,0.00,0.00
2016-05-21 22:30:00,2,17552,0,0.00,2,2,0,2,14716,21301,2434,17714,0,0,0,0,0.00,0.00,0.00,0.00
2016-05-21 22:40:00,2,13128,0,0.00,2,2,0,2,11300,14657,1061,13116,0,0,0,0,0.00,0.00,0.00,0.00
2016-05-21 22:50:00,2,14237,0,0.00,2,2,0,2,11868,16384,1591,15112,0,0,0,0,0.00,0.00,0.00,0.00
2016-05-21 23:00:00,2,16613,0,0.00,2,2,0,2,12313,21500,3302,14680,0,0,0,0,0.00,0.00,0.00,0.00
2016-05-21 23:10:00,2,18937,0,0.00,2,2,0,2,12799,24888,3738,18582,0,0,0,0,0.00,0.00,0.00,0.00
2016-05-21 23:20:00,2,18229,0,0.00,2,2,0,2,12193,25112,4093,18416,0,0,0,0,0.00,0.00,0.00,0.00
2016-05-21 23:30:00,2,16640,0,0.00,2,2,0,2,12323,23060,3889,15656,0,0,0,0,0.00,0.00,0.00,0.00
2016-05-21 23:40:00,2,15098,0,0.00,2,2,0,2,11686,19899,2773,14044,0,0,0,0,0.00,0.00,0.00,0.00
2016-05-21 23:50:00,2,18162,0,0.00,2,2,0,2,13993,25808,3237,16894,0,0,0,0,0.00,0.00,0.00,0.00
